This is the latest recevied weather packets stored in our database for station/object EA4URC-13. If no packets are shown the sender has not sent any weather packets the latest 10 day(s).
| Time | Temp. | Humidity | Pressure | Rain* | Wind** | Luminosity | Snow |
|---|---|---|---|---|---|---|---|
| 1788533596 | 34.44° C | 14% | 1012.3 hPa | - | - | - | - |
| 1788532696 | 33.89° C | 15% | 1012.8 hPa | - | - | - | - |
| 1788531796 | 35° C | 14% | 1012.7 hPa | - | - | - | - |
| 1788530896 | 35° C | 14% | 1012.6 hPa | - | - | - | - |
| 1788529996 | 35° C | 14% | 1012.7 hPa | - | - | - | - |
| 1788529096 | 34.44° C | 14% | 1013 hPa | - | - | - | - |
| 1788528196 | 34.44° C | 14% | 1013.3 hPa | - | - | - | - |
| 1788527296 | 33.89° C | 14% | 1013.5 hPa | - | - | - | - |
| 1788526396 | 33.89° C | 14% | 1014 hPa | - | - | - | - |
| 1788525496 | 33.33° C | 15% | 1014.3 hPa | - | - | - | - |
| 1788524596 | 33.33° C | 14% | 1014.6 hPa | - | - | - | - |
| 1788523696 | 34.44° C | 14% | 1014.3 hPa | - | - | - | - |
| 1788522796 | 34.44° C | 15% | 1014.5 hPa | - | - | - | - |
| 1788521896 | 32.78° C | 15% | 1015.3 hPa | - | - | - | - |
| 1788520996 | 32.78° C | 16% | 1015.5 hPa | - | - | - | - |
| 1788520096 | 32.78° C | 16% | 1015.7 hPa | - | - | - | - |
| 1788519196 | 32.78° C | 16% | 1015.5 hPa | - | - | - | - |
| 1788518296 | 32.22° C | 16% | 1015.8 hPa | - | - | - | - |
| 1788517396 | 32.22° C | 16% | 1015.8 hPa | - | - | - | - |
| 1788516496 | 31.11° C | 17% | 1016.4 hPa | - | - | - | - |
| 1788515596 | 31.11° C | 16% | 1016.6 hPa | - | - | - | - |
| 1788514696 | 31.11° C | 19% | 1016.6 hPa | - | - | - | - |
| 1788513795 | 30° C | 18% | 1016.9 hPa | - | - | - | - |
| 1788512896 | 29.44° C | 19% | 1017.2 hPa | - | - | - | - |
| 1788511995 | 28.89° C | 19% | 1017.1 hPa | - | - | - | - |
* Rain since midnight (hover to see other rain measurements)
** Current wind speed in m/s (hover to see current wind gust speed)